• In Österreich
  • Länderverzeichnis
  • Für 7 Tage
  • Wassertemperatur
  • Satellitenkarten
  • Wetterkarte
  • News
  • Widgets
  • user-avatar
    Anmelden

    Stündliche Wetter Kazanky

    Heute, 26 September, Mittwoch

    Zeit Temperatur Niederschläge Wind Luftdruck Luftfeuchtigkeit
    00:00 +7°C° 0 mm 4 m/S 751 mmHg 77%
    01:00 +7°C° 0 mm 4 m/S 751 mmHg 78%
    02:00 +7°C° 0 mm 4 m/S 751 mmHg 80%
    03:00 +6°C° 0 mm 4 m/S 752 mmHg 81%
    04:00 +6°C° 0 mm 4 m/S 752 mmHg 83%
    05:00 +6°C° 0 mm 4 m/S 752 mmHg 84%
    06:00 +7°C° 0 mm 4 m/S 753 mmHg 78%
    07:00 +8°C° 0 mm 5 m/S 753 mmHg 73%
    08:00 +9°C° 0 mm 5 m/S 753 mmHg 67%
    09:00 +10°C° 0 mm 5 m/S 754 mmHg 59%
    10:00 +12°C° 0 mm 5 m/S 754 mmHg 52%
    11:00 +13°C° 0 mm 5 m/S 754 mmHg 44%
    12:00 +14°C° 0 mm 5 m/S 754 mmHg 42%
    13:00 +14°C° 0 mm 5 m/S 754 mmHg 40%
    14:00 +14°C° 0 mm 5 m/S 754 mmHg 38%
    15:00 +14°C° 0 mm 5 m/S 754 mmHg 40%
    16:00 +13°C° 0 mm 5 m/S 754 mmHg 43%
    17:00 +12°C° 0 mm 4 m/S 754 mmHg 45%
    18:00 +11°C° 0 mm 4 m/S 754 mmHg 48%
    19:00 +10°C° 0 mm 4 m/S 755 mmHg 51%
    20:00 +8°C° 0 mm 4 m/S 755 mmHg 54%
    21:00 +9°C° 0 mm 3 m/S 755 mmHg 54%
    22:00 +8°C° 0 mm 3 m/S 755 mmHg 55%
    23:00 +8°C° 0 mm 3 m/S 755 mmHg 56%

    Morgen, 27 September, Donnerstag

    Zeit Temperatur Niederschläge Wind Luftdruck Luftfeuchtigkeit
    00:00 +8°C° 0 mm 3 m/S 755 mmHg 58%
    01:00 +7°C° 0 mm 3 m/S 755 mmHg 59%
    02:00 +7°C° 0 mm 3 m/S 755 mmHg 61%
    03:00 +7°C° 0 mm 3 m/S 755 mmHg 62%
    04:00 +5°C° 0 mm 3 m/S 755 mmHg 63%
    05:00 +5°C° 0 mm 3 m/S 754 mmHg 64%
    06:00 +8°C° 0 mm 3 m/S 754 mmHg 60%
    07:00 +9°C° 0 mm 3 m/S 755 mmHg 57%
    08:00 +11°C° 0 mm 3 m/S 755 mmHg 53%
    09:00 +13°C° 0 mm 2 m/S 755 mmHg 47%
    10:00 +14°C° 0 mm 2 m/S 755 mmHg 42%
    11:00 +16°C° 0 mm 2 m/S 755 mmHg 37%
    12:00 +16°C° 0 mm 2 m/S 754 mmHg 35%
    13:00 +16°C° 0 mm 2 m/S 754 mmHg 33%
    14:00 +17°C° 0 mm 2 m/S 753 mmHg 32%
    15:00 +16°C° 0 mm 2 m/S 753 mmHg 35%
    16:00 +15°C° 0 mm 2 m/S 753 mmHg 38%
    17:00 +13°C° 0 mm 3 m/S 753 mmHg 41%
    18:00 +13°C° 0 mm 2 m/S 753 mmHg 45%
    19:00 +12°C° 0 mm 2 m/S 753 mmHg 48%
    20:00 +10°C° 0 mm 1 m/S 753 mmHg 52%
    21:00 +10°C° 0 mm 1 m/S 752 mmHg 52%
    22:00 +10°C° 0 mm 1 m/S 752 mmHg 53%
    23:00 +10°C° 0 mm 1 m/S 752 mmHg 54%

    übermorgen, 28 September, Freitag

    Zeit Temperatur Niederschläge Wind Luftdruck Luftfeuchtigkeit
    00:00 +9°C° 0 mm 1 m/S 752 mmHg 54%
    01:00 +9°C° 0 mm 1 m/S 752 mmHg 54%
    02:00 +9°C° 0 mm 1 m/S 751 mmHg 55%
    03:00 +9°C° 0 mm 1 m/S 751 mmHg 55%
    04:00 +9°C° 0 mm 1 m/S 751 mmHg 56%
    05:00 +9°C° 0 mm 1 m/S 750 mmHg 57%
    06:00 +11°C° 0 mm 1 m/S 750 mmHg 53%
    07:00 +13°C° 0 mm 1 m/S 750 mmHg 49%
    08:00 +14°C° 0 mm 1 m/S 750 mmHg 46%
    09:00 +16°C° 0 mm 1 m/S 750 mmHg 42%
    10:00 +19°C° 0 mm 1 m/S 750 mmHg 39%
    11:00 +20°C° 0 mm 1 m/S 750 mmHg 35%
    12:00 +21°C° 0 mm 1 m/S 749 mmHg 35%
    13:00 +20°C° 0 mm 2 m/S 749 mmHg 35%
    14:00 +20°C° 0 mm 2 m/S 748 mmHg 35%
    15:00 +19°C° 0 mm 2 m/S 748 mmHg 40%
    16:00 +18°C° 0 mm 2 m/S 747 mmHg 45%
    17:00 +17°C° 0 mm 2 m/S 747 mmHg 50%
    18:00 +16°C° 0 mm 1 m/S 747 mmHg 55%
    19:00 +15°C° 0 mm 1 m/S 747 mmHg 59%
    20:00 +13°C° 0 mm 1 m/S 747 mmHg 64%
    21:00 +13°C° 0 mm 1 m/S 747 mmHg 66%
    22:00 +13°C° 0 mm 1 m/S 746 mmHg 68%
    23:00 +13°C° 0 mm 1 m/S 746 mmHg 70%

    29 September, Samstag

    Zeit Temperatur Niederschläge Wind Luftdruck Luftfeuchtigkeit
    00:00 +13°C° 0 mm 1 m/S 746 mmHg 71%
    01:00 +12°C° 0 mm 1 m/S 746 mmHg 72%
    02:00 +12°C° 0 mm 1 m/S 746 mmHg 73%
    03:00 +12°C° 0 mm 1 m/S 746 mmHg 73%
    04:00 +12°C° 0 mm 2 m/S 746 mmHg 73%
    05:00 +12°C° 0 mm 2 m/S 745 mmHg 73%
    06:00 +14°C° 0 mm 2 m/S 745 mmHg 68%
    07:00 +15°C° 0 mm 2 m/S 746 mmHg 62%
    08:00 +17°C° 0 mm 2 m/S 746 mmHg 57%
    09:00 +18°C° 0 mm 2 m/S 746 mmHg 53%
    10:00 +19°C° 0 mm 2 m/S 746 mmHg 50%
    11:00 +20°C° 0 mm 2 m/S 746 mmHg 46%
    12:00 +21°C° 0 mm 2 m/S 745 mmHg 45%
    13:00 +21°C° 0 mm 2 m/S 745 mmHg 44%
    14:00 +23°C° 0 mm 2 m/S 745 mmHg 43%
    15:00 +21°C° 0 mm 2 m/S 745 mmHg 47%
    16:00 +20°C° 0 mm 2 m/S 745 mmHg 50%
    17:00 +19°C° 0 mm 2 m/S 745 mmHg 53%
    18:00 +18°C° 0 mm 2 m/S 745 mmHg 56%
    19:00 +17°C° 0 mm 2 m/S 745 mmHg 58%
    20:00 +17°C° 0 mm 3 m/S 745 mmHg 60%
    21:00 +16°C° 0 mm 2 m/S 745 mmHg 61%
    22:00 +16°C° 0 mm 2 m/S 745 mmHg 62%
    23:00 +15°C° 0 mm 2 m/S 745 mmHg 63%

    30 September, Sonntag

    Zeit Temperatur Niederschläge Wind Luftdruck Luftfeuchtigkeit
    00:00 +15°C° 0 mm 2 m/S 745 mmHg 63%
    01:00 +15°C° 0 mm 2 m/S 745 mmHg 64%
    02:00 +14°C° 0 mm 2 m/S 745 mmHg 64%
    03:00 +14°C° 0 mm 2 m/S 745 mmHg 65%
    04:00 +13°C° 0 mm 3 m/S 745 mmHg 66%
    05:00 +13°C° 0 mm 3 m/S 745 mmHg 66%
    06:00 +14°C° 0 mm 3 m/S 746 mmHg 63%
    07:00 +17°C° 0 mm 4 m/S 746 mmHg 59%
    08:00 +18°C° 0 mm 4 m/S 746 mmHg 56%
    09:00 +19°C° 0 mm 4 m/S 746 mmHg 53%
    10:00 +21°C° 0 mm 4 m/S 746 mmHg 49%
    11:00 +22°C° 0 mm 5 m/S 746 mmHg 46%
    12:00 +22°C° 0 mm 5 m/S 746 mmHg 46%
    13:00 +22°C° 0 mm 5 m/S 746 mmHg 47%
    14:00 +23°C° 0 mm 5 m/S 746 mmHg 47%
    15:00 +22°C° 0 mm 5 m/S 746 mmHg 50%
    16:00 +21°C° 0 mm 5 m/S 746 mmHg 53%
    17:00 +20°C° 0 mm 5 m/S 746 mmHg 56%
    18:00 +19°C° 0 mm 4 m/S 746 mmHg 60%
    19:00 +18°C° 0 mm 4 m/S 746 mmHg 63%
    20:00 +17°C° 0 mm 4 m/S 746 mmHg 67%
    21:00 +17°C° 0 mm 4 m/S 746 mmHg 68%
    22:00 +15°C° 0 mm 4 m/S 746 mmHg 69%
    23:00 +15°C° 0 mm 4 m/S 745 mmHg 70%

    1 Oktober, Montag

    Zeit Temperatur Niederschläge Wind Luftdruck Luftfeuchtigkeit
    00:00 +15°C° 0 mm 4 m/S 745 mmHg 74%
    01:00 +15°C° 0 mm 5 m/S 745 mmHg 77%
    02:00 +14°C° 0 mm 5 m/S 745 mmHg 80%
    03:00 +14°C° 0 mm 5 m/S 745 mmHg 83%
    04:00 +14°C° 0 mm 5 m/S 744 mmHg 85%
    05:00 +14°C° 0 mm 5 m/S 744 mmHg 87%
    06:00 +15°C° 0 mm 6 m/S 744 mmHg 83%
    07:00 +16°C° 0 mm 6 m/S 744 mmHg 78%
    08:00 +17°C° 0 mm 6 m/S 744 mmHg 73%
    09:00 +20°C° 0 mm 6 m/S 744 mmHg 67%
    10:00 +21°C° 0 mm 6 m/S 744 mmHg 61%
    11:00 +23°C° 0 mm 6 m/S 744 mmHg 54%
    12:00 +23°C° 0 mm 6 m/S 743 mmHg 53%
    13:00 +23°C° 0 mm 6 m/S 743 mmHg 52%
    14:00 +25°C° 0 mm 5 m/S 743 mmHg 51%
    15:00 +22°C° 0 mm 5 m/S 742 mmHg 56%
    16:00 +21°C° 0 mm 5 m/S 742 mmHg 60%
    17:00 +20°C° 0 mm 5 m/S 742 mmHg 64%
    18:00 +19°C° 0 mm 4 m/S 742 mmHg 68%
    19:00 +18°C° 0 mm 4 m/S 741 mmHg 72%
    20:00 +17°C° 0 mm 4 m/S 741 mmHg 75%
    21:00 +17°C° 0 mm 3 m/S 741 mmHg 74%
    22:00 +17°C° 0 mm 3 m/S 741 mmHg 73%
    23:00 +17°C° 0 mm 2 m/S 740 mmHg 72%
    Mehr zeigen